Weather History for Gage, OK

Change the Weather History Date:

Wednesday, January 2, 2013

  Actual Average Record
Temperature  
Mean Temperature 26 °F -  
Max Temperature 37 °F 41 °F 82 °F (1997)
Min Temperature 15 °F 18 °F -5 °F (1979)
Degree Days  
Heating Degree Days 39    
Moisture  
Dew Point 20 °F    
Average Humidity 80    
Maximum Humidity 95    
Minimum Humidity 57    
Precipitation  
Precipitation 0.00 in - - ()
Sea Level Pressure  
Sea Level Pressure 30.30 in    
Wind  
Wind Speed 7 mph (West)    
Max Wind Speed 15 mph    
Max Gust Speed 21 mph    
Visibility 10 miles    
Events      
Averages and records for this station are not official NWS values.
T = Trace of Precipitation, MM = Missing Value Source: NWS Daily Summary

Daily Weather History Graph

Daily Weather History Graph

Search for Another Location

Airport:

Trip Planner

Search our weather history database for the weather conditions in past years. The results will help you decide how hot, cold, wet, or windy it might be!

Date:

Astronomy

Jan. 02, 2013 Rise Set
Actual Time 7:50 AM CST 5:36 PM CST
Civil Twilight 7:22 AM CST 6:04 PM CST
Nautical Twilight 6:50 AM CST 6:36 PM CST
Astronomical Twilight 6:18 AM CST 7:08 PM CST
Moon 10:59 PM CST (1/2) 10:42 AM CST (1/2)
Length of Visible Light 10h 42m
Length of Day
9h 45m
Waning Gibbous, 75% of the Moon is Illuminated
Jan 2
Waning Gibbous
Jan 4
Last Quarter
Jan 11
New
Jan 18
First Quarter
Jan 26
Full

Hourly Weather History & Observations

Time (CST) Temp. Windchill Dew Point Humidity Pressure Visibility Wind Dir Wind Speed Gust Speed Precip Events Conditions
12:53 AM 15.1 °F 7.7 °F 14.0 °F 95% 30.30 in 7.0 mi West 4.6 mph - N/A   Clear
1:53 AM 16.0 °F 7.4 °F 12.9 °F 88% 30.31 in 8.0 mi WSW 5.8 mph - N/A   Clear
2:53 AM 17.1 °F 7.6 °F 14.0 °F 88% 30.30 in 10.0 mi WSW 6.9 mph - N/A   Clear
3:53 AM 17.1 °F 11.7 °F 14.0 °F 88% 30.30 in 10.0 mi SSW 3.5 mph - N/A   Clear
4:53 AM 17.1 °F 6.6 °F 14.0 °F 88% 30.27 in 10.0 mi SW 8.1 mph - N/A   Clear
5:53 AM 18.0 °F 8.7 °F 15.1 °F 88% 30.27 in 10.0 mi WSW 6.9 mph - N/A   Clear
6:53 AM 17.1 °F 10.0 °F 14.0 °F 88% 30.29 in 10.0 mi West 4.6 mph - N/A   Clear
7:53 AM 16.0 °F 6.3 °F 12.9 °F 88% 30.29 in 10.0 mi WSW 6.9 mph - N/A   Clear
8:53 AM 19.0 °F 8.2 °F 16.0 °F 88% 30.31 in 10.0 mi West 9.2 mph - N/A   Clear
9:53 AM 24.1 °F 15.2 °F 19.0 °F 81% 30.33 in 10.0 mi West 8.1 mph - N/A   Clear
10:53 AM 33.1 °F 24.4 °F 21.9 °F 64% 30.32 in 10.0 mi NW 11.5 mph - N/A   Clear
11:53 AM 37.0 °F 28.9 °F 23.0 °F 57% 30.30 in 10.0 mi WNW 12.7 mph - N/A   Clear
12:53 PM 37.9 °F 30.5 °F 24.1 °F 57% 30.27 in 10.0 mi NNW 11.5 mph - N/A   Clear
1:53 PM 37.9 °F 30.0 °F 24.1 °F 57% 30.25 in 10.0 mi NW 12.7 mph 20.7 mph N/A   Clear
2:53 PM 37.9 °F 30.0 °F 25.0 °F 60% 30.25 in 10.0 mi NNW 12.7 mph 19.6 mph N/A   Partly Cloudy
3:53 PM 37.0 °F 28.5 °F 25.0 °F 62% 30.27 in 10.0 mi NNW 13.8 mph - N/A   Clear
4:53 PM 35.6 °F 26.2 °F 24.8 °F 65% 30.23 in 10.0 mi NNW 15.0 mph - N/A   Partly Cloudy
5:13 PM 35.6 °F 27.1 °F 24.8 °F 65% 30.24 in 10.0 mi North 12.7 mph - N/A   Mostly Cloudy
5:43 PM 30.2 °F 25.4 °F 24.8 °F 80% 30.24 in 10.0 mi NW 4.6 mph - N/A   Scattered Clouds
5:53 PM 28.0 °F 24.2 °F 23.0 °F 81% 30.32 in 10.0 mi West 3.5 mph - N/A   Clear
6:53 PM 27.0 °F 20.5 °F 23.0 °F 85% 30.34 in 10.0 mi West 5.8 mph - N/A   Clear
7:50 PM 26.6 °F 20.0 °F 24.8 °F 93% 30.29 in 10.0 mi WSW 5.8 mph - N/A   Mostly Cloudy
7:53 PM 27.0 °F 20.5 °F 24.1 °F 89% 30.37 in 10.0 mi WSW 5.8 mph - N/A   Scattered Clouds
8:53 PM 24.1 °F 16.0 °F 21.9 °F 91% 30.38 in 10.0 mi WSW 6.9 mph - N/A   Clear
9:53 PM 23.0 °F 13.9 °F 21.0 °F 92% 30.38 in 10.0 mi West 8.1 mph - N/A   Clear
10:53 PM 23.0 °F 17.0 °F 21.0 °F 92% 30.38 in 10.0 mi SW 4.6 mph - N/A   Clear
11:53 PM 21.9 °F 15.7 °F 19.9 °F 92% 30.37 in 10.0 mi WSW 4.6 mph - N/A   Clear